Location: Unspecified
(0.0000°N, 0.0000°E)
Time: 07:06:53
(UTC+00:00)

Envisat - Pass Details

Date: 03 August 2021
Orbit: 764 x 766 km, 98.2° (Epoch: 23 September)

Event Time Altitude Azimuth Distance (km) Brightness Sun altitude
Rises 05:20:44 0° 358° (N) 3,214 6.4 -10.8°
Reaches altitude 10° 05:23:09 10° 350° (N) 2,291 5.6 -10.3°
Maximum altitude 05:27:50 39° 282° (WNW) 1,129 3.5 -9.2°
Drops below altitude 10° 05:32:33 10° 214° (SSW) 2,299 5.0 -8.0°
Sets 05:34:59 0° 206° (SSW) 3,227 5.8 -7.5°
